Year,Month,Day,Hour,Minute,Value (Times are PST for windgust in km/hr)
2021,09,17,00,00,4.80
2021,09,17,00,01,4.80
2021,09,17,00,03,4.80
2021,09,17,00,04,4.80
2021,09,17,00,05,6.40
2021,09,17,00,06,4.80
2021,09,17,00,07,6.40
2021,09,17,00,08,3.20
2021,09,17,00,14,3.20
2021,09,17,00,15,3.20
2021,09,17,00,18,1.60
2021,09,17,00,26,4.80
2021,09,17,00,27,6.40
2021,09,17,00,28,4.80
2021,09,17,00,30,1.60
2021,09,17,00,40,4.80
2021,09,17,00,41,4.80
2021,09,17,00,42,4.80
2021,09,17,00,44,4.80
2021,09,17,00,45,4.80
2021,09,17,00,47,3.20
2021,09,17,00,48,3.20
2021,09,17,00,49,3.20
2021,09,17,00,50,3.20
2021,09,17,00,51,4.80
2021,09,17,00,52,3.20
2021,09,17,00,56,1.60
2021,09,17,00,57,1.60
2021,09,17,00,58,4.80
2021,09,17,00,59,3.20
2021,09,17,01,01,4.80
2021,09,17,01,02,4.80
2021,09,17,01,07,1.60
2021,09,17,01,09,3.20
2021,09,17,01,10,4.80
2021,09,17,01,11,6.40
2021,09,17,01,12,4.80
2021,09,17,01,13,4.80
2021,09,17,01,14,4.80
2021,09,17,01,15,6.40
2021,09,17,01,16,8.10
2021,09,17,01,17,3.20
2021,09,17,01,19,4.80
2021,09,17,01,21,4.80
2021,09,17,01,22,4.80
2021,09,17,01,28,3.20
2021,09,17,01,30,6.40
2021,09,17,01,31,6.40
2021,09,17,01,32,4.80
2021,09,17,01,33,4.80
2021,09,17,01,34,3.20
2021,09,17,01,37,3.20
2021,09,17,01,38,3.20
2021,09,17,01,43,4.80
2021,09,17,01,44,4.80
2021,09,17,01,45,4.80
2021,09,17,01,47,3.20
2021,09,17,01,48,4.80
2021,09,17,01,49,3.20
2021,09,17,01,55,3.20
2021,09,17,01,56,4.80
2021,09,17,01,57,3.20
2021,09,17,01,58,6.40
2021,09,17,01,59,4.80
2021,09,17,02,00,3.20
2021,09,17,02,01,3.20
2021,09,17,02,02,1.60
2021,09,17,02,08,1.60
2021,09,17,02,09,3.20
2021,09,17,02,10,4.80
2021,09,17,02,11,1.60
2021,09,17,02,12,3.20
2021,09,17,02,13,4.80
2021,09,17,02,14,6.40
2021,09,17,02,15,6.40
2021,09,17,02,16,14.50
2021,09,17,02,17,9.60
2021,09,17,02,18,3.20
2021,09,17,02,19,6.40
2021,09,17,02,20,9.60
2021,09,17,02,21,12.90
2021,09,17,02,22,9.60
2021,09,17,02,23,9.60
2021,09,17,02,24,11.30
2021,09,17,02,25,11.30
2021,09,17,02,26,1.60
2021,09,17,02,27,4.80
2021,09,17,02,28,11.30
2021,09,17,02,29,8.10
2021,09,17,02,30,9.60
2021,09,17,02,31,11.30
2021,09,17,02,32,8.10
2021,09,17,02,34,4.80
2021,09,17,02,35,8.10
2021,09,17,02,36,4.80
2021,09,17,02,37,9.60
2021,09,17,02,38,4.80
2021,09,17,02,41,4.80
2021,09,17,02,42,9.60
2021,09,17,02,43,3.20
2021,09,17,02,44,4.80
2021,09,17,02,45,3.20
2021,09,17,02,51,6.40
2021,09,17,02,52,9.60
2021,09,17,02,53,9.60
2021,09,17,03,01,3.20
2021,09,17,03,02,3.20
2021,09,17,03,03,4.80
2021,09,17,03,04,8.10
2021,09,17,03,05,4.80
2021,09,17,03,06,1.60
2021,09,17,03,20,1.60
2021,09,17,03,22,3.20
2021,09,17,03,32,1.60
2021,09,17,03,37,3.20
2021,09,17,03,38,1.60
2021,09,17,03,50,1.60
2021,09,17,03,51,3.20
2021,09,17,03,52,3.20
2021,09,17,04,23,3.20
2021,09,17,04,24,3.20
2021,09,17,04,25,1.60
2021,09,17,04,26,1.60
2021,09,17,04,59,3.20
2021,09,17,05,22,1.60
2021,09,17,05,23,3.20
2021,09,17,05,57,3.20
2021,09,17,05,58,1.60
2021,09,17,07,50,3.20
2021,09,17,07,54,3.20
2021,09,17,07,55,3.20
2021,09,17,08,04,6.40
2021,09,17,08,05,8.10
2021,09,17,08,16,1.60
2021,09,17,08,22,4.80
2021,09,17,08,23,8.10
2021,09,17,08,24,6.40
2021,09,17,08,26,4.80
2021,09,17,08,27,3.20
2021,09,17,08,28,3.20
2021,09,17,08,30,3.20
2021,09,17,08,33,3.20
2021,09,17,08,34,3.20
2021,09,17,08,35,4.80
2021,09,17,08,36,9.60
2021,09,17,08,37,17.70
2021,09,17,08,40,6.40
2021,09,17,08,41,4.80
2021,09,17,08,42,6.40
2021,09,17,08,43,8.10
2021,09,17,08,45,3.20
2021,09,17,08,46,14.50
2021,09,17,08,47,12.90
2021,09,17,08,48,4.80
2021,09,17,08,49,6.40
2021,09,17,08,50,11.30
2021,09,17,08,51,11.30
2021,09,17,08,52,6.40
2021,09,17,08,53,9.60
2021,09,17,08,54,3.20
2021,09,17,08,55,4.80
2021,09,17,08,56,6.40
2021,09,17,08,57,8.10
2021,09,17,08,58,11.30
2021,09,17,08,59,9.60
2021,09,17,09,00,1.60
2021,09,17,09,01,9.60
2021,09,17,09,02,9.60
2021,09,17,09,03,8.10
2021,09,17,09,04,11.30
2021,09,17,09,05,11.30
2021,09,17,09,06,9.60
2021,09,17,09,07,14.50
2021,09,17,09,08,19.30
2021,09,17,09,09,9.60
2021,09,17,09,10,11.30
2021,09,17,09,11,17.70
2021,09,17,09,12,16.10
2021,09,17,09,13,8.10
2021,09,17,09,14,16.10
2021,09,17,09,15,11.30
2021,09,17,09,16,8.10
2021,09,17,09,17,9.60
2021,09,17,09,18,14.50
2021,09,17,09,19,6.40
2021,09,17,09,20,11.30
2021,09,17,09,21,19.30
2021,09,17,09,22,19.30
2021,09,17,09,23,8.10
2021,09,17,09,24,11.30
2021,09,17,09,25,9.60
2021,09,17,09,26,25.70
2021,09,17,09,27,20.90
2021,09,17,09,28,19.30
2021,09,17,09,29,17.70
2021,09,17,09,30,20.90
2021,09,17,09,31,11.30
2021,09,17,09,32,9.60
2021,09,17,09,33,8.10
2021,09,17,09,34,8.10
2021,09,17,09,35,11.30
2021,09,17,09,36,17.70
2021,09,17,09,37,20.90
2021,09,17,09,38,14.50
2021,09,17,09,39,17.70
2021,09,17,09,40,11.30
2021,09,17,09,41,9.60
2021,09,17,09,42,12.90
2021,09,17,09,43,19.30
2021,09,17,09,44,17.70
2021,09,17,09,45,17.70
2021,09,17,09,46,9.60
2021,09,17,09,47,11.30
2021,09,17,09,48,17.70
2021,09,17,09,49,11.30
2021,09,17,09,50,14.50
2021,09,17,09,51,16.10
2021,09,17,09,52,9.60
2021,09,17,09,53,17.70
2021,09,17,09,54,9.60
2021,09,17,09,55,14.50
2021,09,17,09,56,19.30
2021,09,17,09,57,11.30
2021,09,17,09,58,14.50
2021,09,17,09,59,8.10
2021,09,17,10,00,16.10
2021,09,17,10,01,14.50
2021,09,17,10,02,19.30
2021,09,17,10,03,11.30
2021,09,17,10,04,20.90
2021,09,17,10,05,20.90
2021,09,17,10,06,8.10
2021,09,17,10,07,17.70
2021,09,17,10,08,24.20
2021,09,17,10,09,16.10
2021,09,17,10,10,29.00
2021,09,17,10,11,8.10
2021,09,17,10,12,17.70
2021,09,17,10,13,8.10
2021,09,17,10,14,16.10
2021,09,17,10,15,16.10
2021,09,17,10,16,20.90
2021,09,17,10,17,32.20
2021,09,17,10,18,24.20
2021,09,17,10,19,14.50
2021,09,17,10,20,9.60
2021,09,17,10,21,9.60
2021,09,17,10,22,25.70
2021,09,17,10,23,19.30
2021,09,17,10,24,8.10
2021,09,17,10,25,12.90
2021,09,17,10,26,19.30
2021,09,17,10,27,16.10
2021,09,17,10,28,22.50
2021,09,17,10,29,19.30
2021,09,17,10,30,22.50
2021,09,17,10,31,14.50
2021,09,17,10,32,17.70
2021,09,17,10,33,32.20
2021,09,17,10,34,14.50
2021,09,17,10,35,17.70
2021,09,17,10,36,17.70
2021,09,17,10,37,24.20
2021,09,17,10,38,16.10
2021,09,17,10,39,17.70
2021,09,17,10,40,20.90
2021,09,17,10,41,20.90
2021,09,17,10,42,24.20
2021,09,17,10,43,16.10
2021,09,17,10,44,17.70
2021,09,17,10,45,16.10
2021,09,17,10,46,19.30
2021,09,17,10,47,11.30
2021,09,17,10,48,8.10
2021,09,17,10,49,17.70
2021,09,17,10,50,17.70
2021,09,17,10,51,11.30
2021,09,17,10,52,29.00
2021,09,17,10,53,11.30
2021,09,17,10,54,14.50
2021,09,17,10,55,22.50
2021,09,17,10,56,24.20
2021,09,17,10,57,11.30
2021,09,17,10,58,11.30
2021,09,17,10,59,16.10
2021,09,17,11,00,11.30
2021,09,17,11,01,8.10
2021,09,17,11,02,9.60
2021,09,17,11,03,11.30
2021,09,17,11,04,9.60
2021,09,17,11,05,19.30
2021,09,17,11,06,16.10
2021,09,17,11,07,25.70
2021,09,17,11,08,17.70
2021,09,17,11,09,9.60
2021,09,17,11,10,20.90
2021,09,17,11,11,16.10
2021,09,17,11,12,27.40
2021,09,17,11,13,14.50
2021,09,17,11,14,17.70
2021,09,17,11,15,19.30
2021,09,17,11,16,16.10
2021,09,17,11,17,14.50
2021,09,17,11,18,14.50
2021,09,17,11,19,9.60
2021,09,17,11,20,16.10
2021,09,17,11,21,14.50
2021,09,17,11,22,17.70
2021,09,17,11,23,17.70
2021,09,17,11,24,16.10
2021,09,17,11,25,16.10
2021,09,17,11,26,32.20
2021,09,17,11,27,17.70
2021,09,17,11,28,19.30
2021,09,17,11,29,24.20
2021,09,17,11,30,22.50
2021,09,17,11,31,24.20
2021,09,17,11,32,16.10
2021,09,17,11,33,11.30
2021,09,17,11,34,9.60
2021,09,17,11,35,16.10
2021,09,17,11,36,17.70
2021,09,17,11,37,17.70
2021,09,17,11,38,24.20
2021,09,17,11,39,12.90
2021,09,17,11,40,24.20
2021,09,17,11,41,20.90
2021,09,17,11,42,20.90
2021,09,17,11,43,19.30
2021,09,17,11,44,20.90
2021,09,17,11,45,11.30
2021,09,17,11,46,22.50
2021,09,17,11,47,19.30
2021,09,17,11,48,16.10
2021,09,17,11,49,20.90
2021,09,17,11,50,30.60
2021,09,17,11,51,24.20
2021,09,17,11,52,25.70
2021,09,17,11,53,20.90
2021,09,17,11,54,27.40
2021,09,17,11,55,19.30
2021,09,17,11,56,17.70
2021,09,17,11,57,16.10
2021,09,17,11,58,32.20
2021,09,17,11,59,9.60
2021,09,17,12,00,24.20
2021,09,17,12,01,20.90
2021,09,17,12,02,20.90
2021,09,17,12,03,12.90
2021,09,17,12,04,24.20
2021,09,17,12,05,27.40
2021,09,17,12,06,20.90
2021,09,17,12,07,11.30
2021,09,17,12,08,29.00
2021,09,17,12,09,25.70
2021,09,17,12,10,19.30
2021,09,17,12,11,9.60
2021,09,17,12,12,25.70
2021,09,17,12,13,19.30
2021,09,17,12,14,33.80
2021,09,17,12,15,16.10
2021,09,17,12,16,9.60
2021,09,17,12,17,9.60
2021,09,17,12,18,24.20
2021,09,17,12,19,17.70
2021,09,17,12,20,24.20
2021,09,17,12,21,24.20
2021,09,17,12,22,24.20
2021,09,17,12,23,11.30
2021,09,17,12,24,25.70
2021,09,17,12,25,35.40
2021,09,17,12,26,30.60
2021,09,17,12,27,17.70
2021,09,17,12,28,20.90
2021,09,17,12,29,32.20
2021,09,17,12,30,17.70
2021,09,17,12,31,22.50
2021,09,17,12,32,17.70
2021,09,17,12,33,25.70
2021,09,17,12,34,25.70
2021,09,17,12,35,24.20
2021,09,17,12,36,22.50
2021,09,17,12,37,19.30
2021,09,17,12,38,22.50
2021,09,17,12,39,22.50
2021,09,17,12,40,25.70
2021,09,17,12,41,16.10
2021,09,17,12,42,32.20
2021,09,17,12,43,22.50
2021,09,17,12,44,20.90
2021,09,17,12,45,33.80
2021,09,17,12,46,27.40
2021,09,17,12,47,14.50
2021,09,17,12,48,16.10
2021,09,17,12,49,24.20
2021,09,17,12,50,30.60
2021,09,17,12,51,25.70
2021,09,17,12,52,30.60
2021,09,17,12,53,25.70
2021,09,17,12,54,14.50
2021,09,17,12,55,9.60
2021,09,17,12,56,17.70
2021,09,17,12,57,27.40
2021,09,17,12,58,19.30
2021,09,17,12,59,25.70
2021,09,17,13,00,16.10
2021,09,17,13,01,19.30
2021,09,17,13,02,17.70
2021,09,17,13,03,19.30
2021,09,17,13,04,16.10
2021,09,17,13,05,24.20
2021,09,17,13,06,16.10
2021,09,17,13,07,9.60
2021,09,17,13,08,16.10
2021,09,17,13,09,27.40
2021,09,17,13,10,20.90
2021,09,17,13,11,29.00
2021,09,17,13,12,32.20
2021,09,17,13,13,19.30
2021,09,17,13,14,17.70
2021,09,17,13,15,30.60
2021,09,17,13,16,33.80
2021,09,17,13,17,16.10
2021,09,17,13,18,20.90
2021,09,17,13,19,24.20
2021,09,17,13,20,16.10
2021,09,17,13,21,20.90
2021,09,17,13,22,27.40
2021,09,17,13,23,22.50
2021,09,17,13,24,29.00
2021,09,17,13,25,19.30
2021,09,17,13,26,25.70
2021,09,17,13,27,25.70
2021,09,17,13,28,25.70
2021,09,17,13,29,11.30
2021,09,17,13,30,17.70
2021,09,17,13,31,20.90
2021,09,17,13,32,24.20
2021,09,17,13,33,19.30
2021,09,17,13,34,14.50
2021,09,17,13,35,11.30
2021,09,17,13,36,11.30
2021,09,17,13,37,20.90
2021,09,17,13,38,27.40
2021,09,17,13,39,25.70
2021,09,17,13,40,22.50
2021,09,17,13,41,25.70
2021,09,17,13,42,11.30
2021,09,17,13,43,14.50
2021,09,17,13,44,25.70
2021,09,17,13,45,25.70
2021,09,17,13,46,14.50
2021,09,17,13,47,19.30
2021,09,17,13,48,19.30
2021,09,17,13,49,22.50
2021,09,17,13,50,19.30
2021,09,17,13,51,11.30
2021,09,17,13,52,12.90
2021,09,17,13,53,20.90
2021,09,17,13,54,35.40
2021,09,17,13,55,20.90
2021,09,17,13,56,20.90
2021,09,17,13,57,24.20
2021,09,17,13,58,19.30
2021,09,17,13,59,24.20
2021,09,17,14,00,19.30
2021,09,17,14,01,14.50
2021,09,17,14,02,16.10
2021,09,17,14,03,17.70
2021,09,17,14,04,27.40
2021,09,17,14,05,25.70
2021,09,17,14,06,37.00
2021,09,17,14,07,40.20
2021,09,17,14,08,29.00
2021,09,17,14,09,32.20
2021,09,17,14,10,32.20
2021,09,17,14,11,25.70
2021,09,17,14,12,29.00
2021,09,17,14,13,27.40
2021,09,17,14,14,25.70
2021,09,17,14,15,19.30
2021,09,17,14,16,30.60
2021,09,17,14,17,40.20
2021,09,17,14,18,16.10
2021,09,17,14,19,17.70
2021,09,17,14,20,25.70
2021,09,17,14,21,30.60
2021,09,17,14,22,24.20
2021,09,17,14,23,19.30
2021,09,17,14,24,24.20
2021,09,17,14,25,30.60
2021,09,17,14,26,29.00
2021,09,17,14,27,24.20
2021,09,17,14,28,11.30
2021,09,17,14,29,33.80
2021,09,17,14,30,20.90
2021,09,17,14,31,30.60
2021,09,17,14,32,33.80
2021,09,17,14,33,19.30
2021,09,17,14,34,24.20
2021,09,17,14,35,22.50
2021,09,17,14,36,22.50
2021,09,17,14,37,25.70
2021,09,17,14,38,24.20
2021,09,17,14,39,35.40
2021,09,17,14,40,25.70
2021,09,17,14,41,30.60
2021,09,17,14,42,27.40
2021,09,17,14,43,24.20
2021,09,17,14,44,29.00
2021,09,17,14,45,27.40
2021,09,17,14,46,48.30
2021,09,17,14,47,40.20
2021,09,17,14,48,24.20
2021,09,17,14,49,40.20
2021,09,17,14,50,27.40
2021,09,17,14,51,25.70
2021,09,17,14,52,29.00
2021,09,17,14,53,25.70
2021,09,17,14,54,27.40
2021,09,17,14,55,25.70
2021,09,17,14,56,17.70
2021,09,17,14,57,22.50
2021,09,17,14,58,22.50
2021,09,17,14,59,16.10
2021,09,17,15,00,22.50
2021,09,17,15,01,27.40
2021,09,17,15,02,32.20
2021,09,17,15,03,35.40
2021,09,17,15,04,30.60
2021,09,17,15,05,25.70
2021,09,17,15,06,24.20
2021,09,17,15,07,41.80
2021,09,17,15,08,25.70
2021,09,17,15,09,40.20
2021,09,17,15,10,29.00
2021,09,17,15,11,20.90
2021,09,17,15,12,35.40
2021,09,17,15,13,19.30
2021,09,17,15,14,27.40
2021,09,17,15,15,30.60
2021,09,17,15,16,35.40
2021,09,17,15,17,35.40
2021,09,17,15,18,29.00
2021,09,17,15,19,20.90
2021,09,17,15,20,29.00
2021,09,17,15,21,30.60
2021,09,17,15,22,30.60
2021,09,17,15,23,25.70
2021,09,17,15,24,37.00
2021,09,17,15,25,37.00
2021,09,17,15,26,27.40
2021,09,17,15,27,33.80
2021,09,17,15,28,27.40
2021,09,17,15,29,32.20
2021,09,17,15,30,25.70
2021,09,17,15,31,29.00
2021,09,17,15,32,17.70
2021,09,17,15,33,33.80
2021,09,17,15,34,29.00
2021,09,17,15,35,37.00
2021,09,17,15,36,22.50
2021,09,17,15,37,41.80
2021,09,17,15,38,25.70
2021,09,17,15,39,33.80
2021,09,17,15,40,19.30
2021,09,17,15,41,30.60
2021,09,17,15,42,38.60
2021,09,17,15,43,25.70
2021,09,17,15,44,22.50
2021,09,17,15,45,32.20
2021,09,17,15,46,24.20
2021,09,17,15,47,32.20
2021,09,17,15,48,24.20
2021,09,17,15,49,30.60
2021,09,17,15,50,24.20
2021,09,17,15,51,48.30
2021,09,17,15,52,40.20
2021,09,17,15,53,41.80
2021,09,17,15,54,41.80
2021,09,17,15,55,25.70
2021,09,17,15,56,32.20
2021,09,17,15,57,43.50
2021,09,17,15,58,29.00
2021,09,17,15,59,24.20
2021,09,17,16,00,24.20
2021,09,17,16,01,24.20
2021,09,17,16,02,30.60
2021,09,17,16,03,33.80
2021,09,17,16,04,20.90
2021,09,17,16,05,29.00
2021,09,17,16,06,24.20
2021,09,17,16,07,22.50
2021,09,17,16,08,22.50
2021,09,17,16,09,35.40
2021,09,17,16,10,32.20
2021,09,17,16,11,40.20
2021,09,17,16,12,33.80
2021,09,17,16,13,20.90
2021,09,17,16,14,35.40
2021,09,17,16,15,38.60
2021,09,17,16,16,30.60
2021,09,17,16,17,35.40
2021,09,17,16,18,29.00
2021,09,17,16,19,27.40
2021,09,17,16,20,25.70
2021,09,17,16,21,37.00
2021,09,17,16,22,14.50
2021,09,17,16,23,17.70
2021,09,17,16,24,29.00
2021,09,17,16,25,38.60
2021,09,17,16,26,33.80
2021,09,17,16,27,53.10
2021,09,17,16,28,30.60
2021,09,17,16,29,24.20
2021,09,17,16,30,25.70
2021,09,17,16,31,19.30
2021,09,17,16,32,25.70
2021,09,17,16,33,32.20
2021,09,17,16,34,33.80
2021,09,17,16,35,35.40
2021,09,17,16,36,30.60
2021,09,17,16,37,35.40
2021,09,17,16,38,40.20
2021,09,17,16,39,24.20
2021,09,17,16,40,27.40
2021,09,17,16,41,20.90
2021,09,17,16,42,30.60
2021,09,17,16,43,30.60
2021,09,17,16,44,24.20
2021,09,17,16,45,17.70
2021,09,17,16,46,19.30
2021,09,17,16,47,41.80
2021,09,17,16,48,45.10
2021,09,17,16,49,37.00
2021,09,17,16,50,19.30
2021,09,17,16,51,27.40
2021,09,17,16,52,41.80
2021,09,17,16,53,29.00
2021,09,17,16,54,32.20
2021,09,17,16,55,30.60
2021,09,17,16,56,22.50
2021,09,17,16,57,30.60
2021,09,17,16,58,25.70
2021,09,17,16,59,33.80
2021,09,17,17,00,17.70
2021,09,17,17,01,24.20
2021,09,17,17,02,20.90
2021,09,17,17,03,29.00
2021,09,17,17,04,29.00
2021,09,17,17,05,29.00
2021,09,17,17,06,27.40
2021,09,17,17,07,24.20
2021,09,17,17,08,16.10
2021,09,17,17,09,14.50
2021,09,17,17,10,33.80
2021,09,17,17,11,38.60
2021,09,17,17,12,33.80
2021,09,17,17,13,32.20
2021,09,17,17,14,29.00
2021,09,17,17,15,17.70
2021,09,17,17,16,27.40
2021,09,17,17,17,35.40
2021,09,17,17,18,19.30
2021,09,17,17,19,12.90
2021,09,17,17,20,25.70
2021,09,17,17,21,25.70
2021,09,17,17,22,30.60
2021,09,17,17,23,19.30
2021,09,17,17,24,20.90
2021,09,17,17,25,20.90
2021,09,17,17,26,24.20
2021,09,17,17,27,30.60
2021,09,17,17,28,20.90
2021,09,17,17,29,40.20
2021,09,17,17,30,25.70
2021,09,17,17,31,16.10
2021,09,17,17,32,24.20
2021,09,17,17,33,24.20
2021,09,17,17,34,27.40
2021,09,17,17,35,27.40
2021,09,17,17,36,20.90
2021,09,17,17,37,45.10
2021,09,17,17,38,41.80
2021,09,17,17,39,27.40
2021,09,17,17,40,27.40
2021,09,17,17,41,29.00
2021,09,17,19,10,17.70
2021,09,17,19,11,27.40
2021,09,17,19,12,19.30
2021,09,17,19,13,20.90
2021,09,17,19,14,32.20
2021,09,17,19,15,19.30
2021,09,17,19,16,14.50
2021,09,17,19,17,22.50
2021,09,17,19,18,32.20
2021,09,17,19,19,22.50
2021,09,17,19,20,16.10
2021,09,17,19,21,27.40
2021,09,17,19,22,14.50
2021,09,17,19,23,19.30
2021,09,17,19,24,20.90
2021,09,17,19,25,22.50
2021,09,17,19,26,37.00
2021,09,17,19,27,17.70
2021,09,17,19,28,17.70
2021,09,17,19,29,17.70
2021,09,17,19,30,19.30
2021,09,17,19,31,17.70
2021,09,17,19,32,17.70
2021,09,17,19,33,16.10
2021,09,17,19,34,16.10
2021,09,17,19,35,19.30
2021,09,17,19,36,25.70
2021,09,17,19,37,20.90
2021,09,17,19,38,17.70
2021,09,17,19,39,25.70
2021,09,17,19,40,25.70
2021,09,17,19,41,16.10
2021,09,17,19,42,27.40
2021,09,17,19,43,20.90
2021,09,17,19,44,24.20
2021,09,17,19,45,20.90
2021,09,17,19,46,24.20
2021,09,17,19,47,19.30
2021,09,17,19,48,19.30
2021,09,17,19,49,19.30
2021,09,17,19,50,20.90
2021,09,17,19,51,24.20
2021,09,17,19,52,24.20
2021,09,17,19,53,16.10
2021,09,17,19,54,19.30
2021,09,17,19,55,14.50
2021,09,17,19,56,24.20
2021,09,17,19,57,22.50
2021,09,17,19,58,19.30
2021,09,17,19,59,9.60
2021,09,17,20,00,14.50
2021,09,17,20,01,17.70
2021,09,17,20,02,11.30
2021,09,17,20,03,19.30
2021,09,17,20,04,17.70
2021,09,17,20,05,9.60
2021,09,17,20,06,19.30
2021,09,17,20,07,24.20
2021,09,17,20,08,20.90
2021,09,17,20,09,20.90
2021,09,17,20,10,17.70
2021,09,17,20,11,17.70
2021,09,17,20,12,16.10
2021,09,17,20,13,16.10
2021,09,17,20,14,16.10
2021,09,17,20,15,20.90
2021,09,17,20,16,16.10
2021,09,17,20,17,22.50
2021,09,17,20,18,19.30
2021,09,17,20,19,9.60
2021,09,17,20,20,9.60
2021,09,17,20,21,14.50
2021,09,17,20,22,16.10
2021,09,17,20,23,16.10
2021,09,17,20,24,17.70
2021,09,17,20,25,14.50
2021,09,17,20,26,16.10
2021,09,17,20,27,17.70
2021,09,17,20,28,17.70
2021,09,17,20,29,20.90
2021,09,17,20,30,11.30
2021,09,17,20,31,11.30
2021,09,17,20,32,11.30
2021,09,17,20,33,17.70
2021,09,17,20,34,11.30
2021,09,17,20,35,9.60
2021,09,17,20,36,16.10
2021,09,17,20,37,16.10
2021,09,17,20,38,11.30
2021,09,17,20,39,9.60
2021,09,17,20,40,11.30
2021,09,17,20,41,16.10
2021,09,17,20,42,12.90
2021,09,17,20,43,12.90
2021,09,17,20,44,6.40
2021,09,17,20,45,19.30
2021,09,17,20,46,14.50
2021,09,17,20,47,9.60
2021,09,17,20,48,9.60
2021,09,17,20,49,16.10
2021,09,17,20,50,11.30
2021,09,17,20,51,8.10
2021,09,17,20,52,8.10
2021,09,17,20,53,9.60
2021,09,17,20,54,11.30
2021,09,17,20,55,6.40
2021,09,17,20,56,9.60
2021,09,17,20,57,8.10
2021,09,17,20,58,4.80
2021,09,17,20,59,6.40
2021,09,17,21,00,8.10
2021,09,17,21,01,14.50
2021,09,17,21,02,4.80
2021,09,17,21,03,6.40
2021,09,17,21,04,6.40
2021,09,17,21,05,3.20
2021,09,17,21,06,4.80
2021,09,17,21,07,4.80
2021,09,17,21,08,9.60
2021,09,17,21,09,6.40
2021,09,17,21,10,6.40
2021,09,17,21,11,14.50
2021,09,17,21,12,8.10
2021,09,17,21,13,8.10
2021,09,17,21,14,6.40
2021,09,17,21,15,8.10
2021,09,17,21,16,11.30
2021,09,17,21,17,12.90
2021,09,17,21,18,4.80
2021,09,17,21,19,6.40
2021,09,17,21,20,8.10
2021,09,17,21,21,4.80
2021,09,17,21,22,6.40
2021,09,17,21,23,4.80
2021,09,17,21,24,6.40
2021,09,17,21,25,6.40
2021,09,17,21,26,6.40
2021,09,17,21,27,6.40
2021,09,17,21,28,6.40
2021,09,17,21,29,9.60
2021,09,17,21,30,4.80
2021,09,17,21,31,4.80
2021,09,17,21,32,4.80
2021,09,17,21,34,1.60
2021,09,17,21,37,3.20
2021,09,17,21,38,6.40
2021,09,17,21,39,6.40
2021,09,17,21,40,6.40
2021,09,17,21,41,11.30
2021,09,17,21,42,11.30
2021,09,17,21,43,8.10
2021,09,17,21,44,4.80
2021,09,17,21,45,6.40
2021,09,17,21,48,4.80
2021,09,17,21,49,9.60
2021,09,17,21,50,4.80
2021,09,17,21,51,6.40
2021,09,17,21,52,6.40
2021,09,17,21,53,6.40
2021,09,17,21,54,3.20
2021,09,17,21,55,3.20
2021,09,17,21,56,3.20
2021,09,17,21,57,8.10
2021,09,17,21,58,8.10
2021,09,17,21,59,8.10
2021,09,17,22,00,6.40
2021,09,17,22,01,8.10
2021,09,17,22,02,8.10
2021,09,17,22,04,1.60
2021,09,17,22,06,6.40
2021,09,17,22,07,8.10
2021,09,17,22,08,6.40
2021,09,17,22,09,4.80
2021,09,17,22,10,8.10
2021,09,17,22,11,4.80
2021,09,17,22,13,4.80
2021,09,17,22,14,6.40
2021,09,17,22,18,4.80
2021,09,17,22,23,4.80
2021,09,17,22,24,3.20
2021,09,17,22,25,1.60
2021,09,17,22,27,4.80
2021,09,17,22,28,6.40
2021,09,17,22,29,1.60
2021,09,17,22,32,4.80
2021,09,17,22,33,3.20
2021,09,17,22,39,11.30
2021,09,17,22,40,6.40
2021,09,17,22,41,6.40
2021,09,17,22,42,8.10
2021,09,17,22,43,6.40
2021,09,17,22,44,3.20
2021,09,17,22,45,4.80
2021,09,17,22,46,9.60
2021,09,17,22,47,17.70
2021,09,17,22,48,9.60
2021,09,17,22,49,8.10
2021,09,17,22,50,1.60
2021,09,17,22,51,1.60
2021,09,17,22,52,3.20
2021,09,17,22,53,1.60
2021,09,17,22,54,6.40
2021,09,17,22,55,3.20
2021,09,17,22,56,8.10
2021,09,17,22,57,3.20
2021,09,17,22,58,4.80
2021,09,17,22,59,4.80
2021,09,17,23,00,6.40
2021,09,17,23,01,8.10
2021,09,17,23,02,6.40
2021,09,17,23,03,4.80
2021,09,17,23,06,4.80
2021,09,17,23,07,4.80
2021,09,17,23,10,3.20
2021,09,17,23,11,3.20
2021,09,17,23,13,4.80
2021,09,17,23,14,8.10
2021,09,17,23,15,3.20
2021,09,17,23,18,4.80
2021,09,17,23,19,6.40
2021,09,17,23,20,4.80
2021,09,17,23,21,4.80
2021,09,17,23,26,8.10
2021,09,17,23,27,8.10
2021,09,17,23,28,9.60
2021,09,17,23,29,4.80
2021,09,17,23,30,3.20
2021,09,17,23,31,11.30
2021,09,17,23,32,11.30
2021,09,17,23,33,6.40
2021,09,17,23,34,4.80
2021,09,17,23,37,6.40
2021,09,17,23,38,4.80
2021,09,17,23,39,6.40
2021,09,17,23,43,3.20
2021,09,17,23,44,8.10
2021,09,17,23,45,6.40
2021,09,17,23,49,8.10
2021,09,17,23,50,6.40
2021,09,17,23,51,4.80
2021,09,17,23,52,6.40
2021,09,17,23,53,8.10
2021,09,17,23,54,9.60
2021,09,17,23,55,6.40
2021,09,17,23,57,1.60
2021,09,17,23,58,8.10
2021,09,17,23,59,6.40
